Location: Avon School (historical)
(37.7514°N, 90.2201°W)
Time: 01:35:47
(UTC+00:00)

Explorer 7 - Pass Details

Date: 20 December 2025
Orbit: 433 x 550 km, 50.2° (Epoch: 13 January)

Event Time Altitude Azimuth Distance (km) Brightness Sun altitude
Rises 00:15:40 0° 311° (NW) 2,453 10.6 -17.3°
Reaches altitude 10° 00:19:04 10° 346° (NNW) 1,559 9.1 -18.0°
Enters shadow 00:19:47 11° 358° (N) 1,477 8.9 -18.1°
